FW4606 Weather Reports


time (UTC)temp
C
wind
direction
speed
KPH
gust
KPH
rain 1hr
cm
rain 24hr
cm
rain mn
cm
humidity
%
barometer
mb
20260831234339 29 121 0.0 0.0 0.00 0.00 0.00 52 1011.7
20260831233838 30 121 0.0 0.0 0.00 0.00 0.00 51 1011.7
20260831233336 30 121 0.0 0.0 0.00 0.00 0.00 50 1011.6
20260831232833 30 121 0.0 0.0 0.00 0.00 0.00 48 1011.7
20260831232333 30 121 0.0 0.0 0.00 0.00 0.00 49 1011.7
20260831231837 30 121 0.0 0.0 0.00 0.00 0.00 47 1011.7
20260831231333 31 121 0.0 0.0 0.00 0.00 0.00 46 1011.6
20260831230832 31 122 0.0 0.0 0.00 0.00 0.00 45 1011.7
20260831230332 31 121 0.0 0.0 0.00 0.00 0.00 44 1011.6
20260831225826 31 121 0.0 0.0 0.00 0.00 0.00 44 1011.6
20260831225319 32 121 0.0 0.0 0.00 0.00 0.00 43 1011.6
20260831224814 32 121 0.0 0.0 0.00 0.00 0.00 43 1011.7
20260831224308 33 156 0.0 1.6 0.00 0.00 0.00 43 1011.5
20260831223802 33 158 0.0 1.6 0.00 0.00 0.00 44 1011.6
20260831223255 33 138 0.0 0.0 0.00 0.00 0.00 44 1011.6
20260831222751 33 135 0.0 1.6 0.00 0.00 0.00 40 1011.6
20260831222745 33 134 0.0 1.6 0.00 0.00 0.00 41 1011.4
20260831222008 33 39 0.0 1.6 0.00 0.00 0.00 43 1011.5
20260831221505 33 75 0.0 1.6 0.00 0.00 0.00 40 1011.5
20260831220726 33 351 0.0 4.8 0.00 0.00 0.00 40 1011.4
20260831220219 33 108 1.6 9.7 0.00 0.00 0.00 41 1011.3
20260831215714 33 162 1.6 9.7 0.00 0.00 0.00 39 1011.4
20260831215208 33 113 0.0 4.8 0.00 0.00 0.00 42 1011.3
20260831214702 32 134 0.0 4.8 0.00 0.00 0.00 47 1011.3
20260831214156 32 143 0.0 1.6 0.00 0.00 0.00 43 1011.3
20260831213650 33 146 0.0 1.6 0.00 0.00 0.00 43 1011.3
20260831213144 33 146 0.0 1.6 0.00 0.00 0.00 40 1011.2
20260831212638 33 181 0.0 1.6 0.00 0.00 0.00 38 1011.2
20260831212132 33 118 0.0 3.2 0.00 0.00 0.00 40 1011.2
20260831211632 33 94 0.0 3.2 0.00 0.00 0.00 43 1011.2
20260831211129 32 148 0.0 1.6 0.00 0.00 0.00 44 1011.2
20260831210628 33 113 0.0 1.6 0.00 0.00 0.00 43 1011.1
20260831210126 33 7 1.6 4.8 0.00 0.00 0.00 48 1011.1
20260831205625 32 117 1.6 6.4 0.00 0.00 0.00 46 1011.1
20260831205123 32 148 1.6 6.4 0.00 0.00 0.00 42 1011.2
20260831204854 32 92 1.6 6.4 0.00 0.00 0.00 43 1011.3
20260831204124 32 160 0.0 4.8 0.00 0.00 0.00 45 1011.2
20260831203851 33 115 0.0 4.8 0.00 0.00 0.00 44 1011.2
20260831203123 33 345 0.0 1.6 0.00 0.00 0.00 44 1011.2
20260831202620 32 359 0.0 1.6 0.00 0.00 0.00 43 1011.2
20260831202121 33 18 0.0 1.6 0.00 0.00 0.00 43 1011.2
20260831201625 32 94 0.0 4.8 0.00 0.00 0.00 41 1011.1
20260831201619 32 122 0.0 1.6 0.00 0.00 0.00 45 1011.2
20260831200619 32 12 0.0 4.8 0.00 0.00 0.00 44 1011.1
20260831200119 33 109 0.0 3.2 0.00 0.00 0.00 47 1011.1
20260831195852 32 109 0.0 3.2 0.00 0.00 0.00 44 1011.0
20260831195114 33 103 1.6 8.0 0.00 0.00 0.00 48 1010.9
20260831194609 32 141 1.6 8.0 0.00 0.00 0.00 45 1010.9
20260831194103 32 94 0.0 4.8 0.00 0.00 0.00 46 1010.9
20260831193557 32 5 0.0 4.8 0.00 0.00 0.00 46 1010.9
20260831193051 32 3 0.0 6.4 0.00 0.00 0.00 49 1010.9
20260831192544 32 132 0.0 6.4 0.00 0.00 0.00 47 1011.0
20260831192311 32 156 0.0 8.0 0.00 0.00 0.00 48 1011.0
20260831191533 32 92 0.0 8.0 0.00 0.00 0.00 52 1011.1
20260831191027 32 319 0.0 4.8 0.00 0.00 0.00 52 1011.2
20260831190521 32 128 0.0 4.8 0.00 0.00 0.00 52 1011.2
20260831190247 32 342 0.0 4.8 0.00 0.00 0.00 54 1011.1
20260831185740 31 345 0.0 4.8 0.00 0.00 0.00 54 1011.0
20260831185003 31 113 1.6 4.8 0.00 0.00 0.00 55 1011.0
20260831184503 31 77 1.6 4.8 0.00 0.00 0.00 57 1011.0
20260831184236 31 356 1.6 4.8 0.00 0.00 0.00 57 1011.0
20260831183503 31 99 0.0 4.8 0.00 0.00 0.00 58 1010.9
20260831183005 31 132 0.0 3.2 0.00 0.00 0.00 60 1011.0
20260831182504 31 345 0.0 4.8 0.00 0.00 0.00 60 1011.0
20260831182003 30 110 0.0 4.8 0.00 0.00 0.00 62 1011.0
20260831181504 30 44 1.6 8.0 0.00 0.00 0.00 62 1011.0
20260831181003 30 4 1.6 8.0 0.00 0.00 0.00 66 1011.1
20260831180735 30 69 1.6 6.4 0.00 0.00 0.00 64 1011.2
20260831180009 30 113 1.6 4.8 0.00 0.00 0.00 67 1011.3
20260831180003 30 194 1.6 6.4 0.00 0.00 0.00 64 1011.2
20260831175003 29 83 1.6 4.8 0.00 0.00 0.00 67 1011.2
20260831174504 29 117 1.6 4.8 0.00 0.00 0.00 70 1011.3
20260831174003 28 91 1.6 6.4 0.00 0.00 0.00 68 1011.2
20260831173735 28 107 1.6 6.4 0.00 0.00 0.00 72 1011.3
20260831173235 29 124 1.6 4.8 0.00 0.00 0.00 72 1011.3
20260831172458 28 238 1.6 6.4 0.00 0.00 0.00 77 1011.3
20260831171952 28 195 1.6 6.4 0.00 0.00 0.00 76 1011.4
20260831171446 28 230 1.6 4.8 0.00 0.00 0.00 76 1011.4
20260831170940 28 100 0.0 3.2 0.00 0.00 0.00 77 1011.4
20260831170434 28 112 0.0 3.2 0.00 0.00 0.00 80 1011.4
20260831165928 27 122 0.0 3.2 0.00 0.00 0.00 79 1011.4
20260831165422 27 33 0.0 3.2 0.00 0.00 0.00 80 1011.4
20260831164916 27 132 0.0 3.2 0.00 0.00 0.00 82 1011.4
20260831164410 26 141 0.0 3.2 0.00 0.00 0.00 84 1011.5
20260831163903 26 77 0.0 1.6 0.00 0.00 0.00 84 1011.4
20260831163358 26 105 0.0 1.6 0.00 0.00 0.00 84 1011.4
20260831162852 26 351 0.0 1.6 0.00 0.00 0.00 84 1011.4
20260831162347 26 307 0.0 1.6 0.00 0.00 0.00 84 1011.4
20260831161840 26 81 0.0 1.6 0.00 0.00 0.00 84 1011.3
20260831161334 26 138 0.0 3.2 0.00 0.00 0.00 85 1011.4
20260831160827 26 44 0.0 3.2 0.00 0.00 0.00 85 1011.3
20260831160322 26 0 0.0 3.2 0.00 0.00 0.00 85 1011.4
20260831155816 26 198 0.0 1.6 0.00 0.00 0.00 84 1011.3
20260831155310 26 198 0.0 1.6 0.00 0.00 0.00 85 1011.2
20260831154803 26 67 0.0 3.2 0.00 0.00 0.00 85 1011.1
20260831154259 26 129 0.0 3.2 0.00 0.00 0.00 88 1011.1
20260831154254 26 343 0.0 4.8 0.00 0.00 0.00 87 1010.8
20260831153245 26 97 0.0 4.8 0.00 0.00 0.00 87 1010.7
20260831152740 26 119 1.6 4.8 0.00 0.00 0.00 87 1010.7
20260831152234 26 102 0.0 4.8 0.00 0.00 0.00 88 1010.6
20260831151728 26 103 0.0 3.2 0.00 0.00 0.00 88 1010.6
20260831151221 26 89 0.0 4.8 0.00 0.00 0.00 88 1010.5
20260831150716 26 27 0.0 4.8 0.00 0.00 0.00 88 1010.5
20260831150209 26 109 0.0 1.6 0.00 0.00 0.00 88 1010.5
20260831145704 26 127 0.0 3.2 0.00 0.00 0.00 88 1010.4
20260831145158 25 162 0.0 3.2 0.00 0.00 0.00 88 1010.2
20260831144651 25 149 1.6 4.8 0.00 0.00 0.00 90 1010.2
20260831144146 25 143 1.6 4.8 0.00 0.00 0.00 89 1010.0
20260831143640 25 149 1.6 6.4 0.00 0.00 0.00 90 1010.0
20260831143405 25 201 1.6 6.4 0.00 0.00 0.00 91 1010.0
20260831142628 25 84 0.0 3.2 0.00 0.00 0.00 91 1009.9
20260831142121 25 149 0.0 4.8 0.00 0.00 0.00 91 1009.9
20260831141616 24 89 1.6 6.4 0.00 0.00 0.00 91 1009.8
20260831141109 25 120 1.6 6.4 0.00 0.00 0.00 91 1009.7
20260831140604 25 110 1.6 4.8 0.00 0.00 0.00 92 1009.6
20260831140328 24 127 1.6 4.8 0.00 0.00 0.00 92 1009.6
20260831135552 24 124 3.2 6.4 0.00 0.00 0.00 93 1009.5
20260831135046 23 127 3.2 6.4 0.00 0.00 0.00 93 1009.5
20260831134811 23 148 1.6 6.4 0.00 0.00 0.00 94 1009.3
20260831134034 23 225 1.6 6.4 0.00 0.00 0.00 95 1009.2
20260831133528 23 131 1.6 4.8 0.00 0.00 0.00 96 1009.1
20260831133022 22 158 0.0 3.2 0.00 0.00 0.00 97 1009.1
20260831132516 22 136 0.0 3.2 0.00 0.00 0.00 97 1009.2
20260831132010 22 160 0.0 3.2 0.00 0.00 0.00 97 1009.1
20260831131504 22 226 0.0 3.2 0.00 0.00 0.00 97 1009.1
20260831130958 22 218 0.0 1.6 0.00 0.00 0.00 97 1009.1
20260831130452 21 207 0.0 1.6 0.00 0.00 0.00 97 1009.1
20260831125945 21 214 0.0 1.6 0.00 0.00 0.00 97 1009.1
20260831125440 21 149 0.0 0.0 0.00 0.00 0.00 97 1009.0
20260831124933 21 149 0.0 0.0 0.00 0.00 0.00 97 1008.9
20260831124659 21 148 0.0 0.0 0.00 0.00 0.00 97 1008.9
20260831123922 21 150 0.0 0.0 0.00 0.00 0.00 97 1008.9
20260831123416 21 150 0.0 0.0 0.00 0.00 0.00 97 1008.8
20260831122910 21 150 0.0 0.0 0.00 0.00 0.00 97 1008.8
20260831122404 21 149 0.0 0.0 0.00 0.00 0.00 97 1008.6
20260831121858 21 148 0.0 0.0 0.00 0.00 0.00 97 1008.5
20260831121352 21 148 0.0 0.0 0.00 0.00 0.00 97 1008.3
20260831120846 20 148 0.0 0.0 0.00 0.00 0.00 97 1008.1
20260831120610 20 150 0.0 0.0 0.00 0.00 0.00 97 1008.2
20260831115834 20 150 0.0 0.0 0.00 0.00 0.00 96 1008.1
20260831115329 20 150 0.0 0.0 0.00 0.00 0.00 96 1008.1
20260831114822 20 149 0.0 0.0 0.00 0.00 0.00 96 1008.0
20260831114547 20 150 0.0 0.0 0.00 0.00 0.00 96 1008.2
20260831113810 20 149 0.0 0.0 0.00 0.00 0.00 96 1008.1
20260831113304 20 150 0.0 0.0 0.00 0.00 0.00 96 1008.1
20260831112757 20 149 0.0 0.0 0.00 0.00 0.00 96 1007.9
20260831112252 20 149 0.0 0.0 0.00 0.00 0.00 96 1007.9
20260831111746 21 149 0.0 0.0 0.00 0.00 0.00 96 1007.9
20260831111240 21 149 0.0 0.0 0.00 0.00 0.00 96 1007.8
20260831110734 21 149 0.0 0.0 0.00 0.00 0.00 96 1007.8
20260831110228 21 150 0.0 0.0 0.00 0.00 0.00 96 1007.7
20260831105722 21 150 0.0 0.0 0.00 0.00 0.00 95 1007.8
20260831105215 21 149 0.0 0.0 0.00 0.00 0.00 95 1007.8
20260831104710 21 150 0.0 0.0 0.00 0.00 0.00 95 1007.9
20260831104204 21 149 0.0 0.0 0.00 0.00 0.00 96 1008.0
20260831103658 21 150 0.0 0.0 0.00 0.00 0.00 95 1007.8
20260831103152 21 148 0.0 0.0 0.00 0.00 0.00 95 1007.7
20260831102646 21 149 0.0 0.0 0.00 0.00 0.00 95 1007.7
20260831102140 21 149 0.0 0.0 0.00 0.00 0.00 95 1007.7
20260831101634 21 149 0.0 0.0 0.00 0.00 0.00 95 1007.7
20260831101128 21 150 0.0 0.0 0.00 0.00 0.00 95 1007.7
20260831100622 21 157 0.0 0.0 0.00 0.00 0.00 95 1007.6
20260831100116 21 156 0.0 0.0 0.00 0.00 0.00 95 1007.6
20260831095609 21 157 0.0 0.0 0.00 0.00 0.00 95 1007.5
20260831095103 21 157 0.0 0.0 0.00 0.00 0.00 95 1007.4
20260831094558 21 157 0.0 0.0 0.00 0.00 0.00 95 1007.3
20260831094052 21 157 0.0 0.0 0.00 0.00 0.00 95 1007.4
20260831093546 21 157 0.0 0.0 0.00 0.00 0.00 94 1007.3
20260831093040 21 157 0.0 0.0 0.00 0.00 0.00 94 1007.4
20260831092533 21 156 0.0 0.0 0.00 0.00 0.00 94 1007.4
20260831092028 21 156 0.0 0.0 0.00 0.00 0.00 94 1007.5
20260831091522 21 157 0.0 0.0 0.00 0.00 0.00 94 1007.5
20260831091242 21 157 0.0 0.0 0.00 0.00 0.00 94 1007.7
20260831091116 21 157 0.0 0.0 0.00 0.00 0.00 94 1007.7
20260831090004 21 157 0.0 0.0 0.00 0.00 0.00 94 1007.8
20260831085458 21 157 0.0 0.0 0.00 0.00 0.00 94 1007.6
20260831084952 21 152 0.0 0.0 0.00 0.00 0.00 93 1007.5
20260831084452 22 153 0.0 0.0 0.00 0.00 0.00 93 1007.4
20260831083949 22 152 0.0 0.0 0.00 0.00 0.00 93 1007.3
20260831083449 22 152 0.0 0.0 0.00 0.00 0.00 93 1007.4
20260831082953 22 151 0.0 0.0 0.00 0.00 0.00 93 1007.4
20260831082448 22 152 0.0 0.0 0.00 0.00 0.00 93 1007.4
20260831081946 22 152 0.0 0.0 0.00 0.00 0.00 93 1007.3
20260831081443 22 152 0.0 0.0 0.00 0.00 0.00 92 1007.3
20260831081212 22 152 0.0 0.0 0.00 0.00 0.00 92 1007.3
20260831080440 22 152 0.0 0.0 0.00 0.00 0.00 92 1007.2
20260831080209 22 151 0.0 3.2 0.00 0.00 0.00 92 1007.2
20260831075440 22 152 0.0 3.2 0.00 0.00 0.00 92 1007.1
20260831074938 22 156 0.0 1.6 0.00 0.00 0.00 92 1007.2
20260831074710 22 162 0.0 1.6 0.00 0.00 0.00 92 1007.3
20260831073937 22 201 0.0 1.6 0.00 0.00 0.00 92 1007.3
20260831073436 22 169 0.0 1.6 0.00 0.00 0.00 92 1007.2
20260831072934 22 214 0.0 1.6 0.00 0.00 0.00 92 1007.3
20260831072434 22 259 0.0 1.6 0.00 0.00 0.00 91 1007.4
20260831071930 22 259 0.0 1.6 0.00 0.00 0.00 91 1007.4
20260831071429 22 260 0.0 0.0 0.00 0.00 0.00 91 1007.5
20260831071206 22 259 0.0 0.0 0.00 0.00 0.00 91 1007.6
20260831070426 22 259 0.0 0.0 0.00 0.00 0.00 91 1007.6
20260831070152 22 226 0.0 0.0 0.00 0.00 0.00 91 1007.6
20260831065645 22 226 0.0 1.6 0.00 0.00 0.00 91 1007.5
20260831064908 22 226 0.0 1.6 0.00 0.00 0.00 91 1007.6
20260831064403 22 151 0.0 1.6 0.00 0.00 0.00 91 1007.7
20260831063856 22 246 0.0 0.0 0.00 0.00 0.00 91 1007.8
20260831063351 22 266 0.0 0.0 0.00 0.00 0.00 90 1007.8
20260831062844 22 266 0.0 0.0 0.00 0.00 0.00 90 1007.9
20260831062346 22 277 0.0 1.6 0.00 0.00 0.00 90 1008.0
20260831062342 22 266 0.0 1.6 0.00 0.00 0.00 90 1008.0
20260831061338 23 248 0.0 0.0 0.00 0.00 0.00 90 1008.0
20260831061111 23 249 0.0 1.6 0.00 0.00 0.00 90 1008.1
20260831060607 23 249 0.0 1.6 0.00 0.00 0.00 90 1008.0
20260831055837 23 254 0.0 1.6 0.00 0.00 0.00 89 1008.0
20260831055336 23 254 0.0 3.2 0.00 0.00 0.00 89 1007.9
20260831054838 23 169 0.0 3.2 0.00 0.00 0.00 89 1008.0
20260831054608 23 131 0.0 1.6 0.00 0.00 0.00 89 1008.0
20260831054105 23 227 0.0 3.2 0.00 0.00 0.00 89 1008.0
20260831053336 23 163 0.0 3.2 0.00 0.00 0.00 89 1008.1
20260831052834 23 200 0.0 1.6 0.00 0.00 0.00 89 1008.2
20260831052333 23 249 0.0 3.2 0.00 0.00 0.00 89 1008.3
20260831052103 23 295 0.0 3.2 0.00 0.00 0.00 88 1008.4
20260831051329 23 342 0.0 3.2 0.00 0.00 0.00 88 1008.4
20260831050830 23 225 0.0 3.2 0.00 0.00 0.00 88 1008.4
20260831050330 23 153 0.0 3.2 0.00 0.00 0.00 88 1008.6
20260831045831 23 179 0.0 3.2 0.00 0.00 0.00 88 1008.7
20260831045329 23 155 0.0 3.2 0.00 0.00 0.00 87 1008.7
20260831045057 23 113 0.0 3.2 0.00 0.00 0.00 87 1008.8
20260831044324 23 152 0.0 3.2 0.00 0.00 0.00 87 1008.8
20260831043825 24 283 0.0 4.8 0.00 0.00 0.00 86 1008.9
20260831043323 24 107 0.0 4.8 0.00 0.00 0.00 86 1009.0
20260831043057 24 160 0.0 1.6 0.00 0.00 0.00 86 1009.1
20260831042322 24 75 0.0 1.6 0.00 0.00 0.00 85 1008.9
20260831042050 24 276 0.0 1.6 0.00 0.00 0.00 85 1008.9
20260831041944 24 242 0.0 4.8 0.00 0.00 0.00 85 1008.9
20260831040820 24 242 1.6 9.7 0.00 0.00 0.00 84 1008.9
20260831040312 24 174 0.0 9.7 0.00 0.00 0.00 84 1008.8
20260831035806 24 212 1.6 11.3 0.00 0.00 0.00 84 1008.8
20260831035306 24 252 0.0 11.3 0.00 0.00 0.00 84 1008.8
20260831034803 24 134 0.0 4.8 0.00 0.00 0.00 83 1008.7
20260831034301 25 113 0.0 4.8 0.00 0.00 0.00 83 1008.7
20260831033803 25 240 0.0 4.8 0.00 0.00 0.00 82 1008.8
20260831033300 25 249 0.0 9.7 0.00 0.00 0.00 82 1008.8
20260831032759 25 179 1.6 9.7 0.00 0.00 0.00 82 1008.8
20260831032259 25 236 1.6 8.0 0.00 0.00 0.00 81 1008.8
20260831031800 25 152 1.6 8.0 0.00 0.00 0.00 81 1008.8
20260831031533 25 190 0.0 4.8 0.00 0.00 0.00 81 1008.7
20260831030759 25 71 1.6 8.0 0.00 0.00 0.00 80 1008.6
20260831030259 25 265 1.6 8.0 0.00 0.00 0.00 80 1008.6
20260831025759 25 91 1.6 11.3 0.00 0.00 0.00 79 1008.5
20260831025259 25 112 1.6 12.9 0.00 0.00 0.00 79 1008.5
20260831024801 25 248 1.6 12.9 0.00 0.00 0.00 78 1008.4
20260831024255 26 249 1.6 8.0 0.00 0.00 0.00 78 1008.5
20260831023755 26 309 1.6 6.4 0.00 0.00 0.00 77 1008.5
20260831023259 26 96 3.2 8.0 0.00 0.00 0.00 77 1008.5
20260831022756 26 212 3.2 8.0 0.00 0.00 0.00 76 1008.5
20260831022253 26 159 3.2 8.0 0.00 0.00 0.00 75 1008.5
20260831021753 26 205 3.2 11.3 0.00 0.00 0.00 75 1008.5
20260831021252 26 242 3.2 14.5 0.00 0.00 0.00 74 1008.4
20260831020750 26 249 3.2 20.9 0.00 0.00 0.00 74 1008.5
20260831020251 26 170 1.6 20.9 0.00 0.00 0.00 74 1008.4
20260831015749 26 169 1.6 9.7 0.00 0.00 0.00 75 1008.3
20260831015522 26 127 0.0 6.4 0.00 0.00 0.00 78 1008.2
20260831015022 26 174 0.0 3.2 0.00 0.00 0.00 83 1008.3
20260831014248 26 221 0.0 1.6 0.00 0.00 0.00 85 1008.2
20260831014020 26 208 0.0 1.6 0.00 0.00 0.00 85 1008.2
20260831013245 26 141 0.0 1.6 0.00 0.00 0.00 85 1008.2
20260831012741 26 348 0.0 0.0 0.00 0.00 0.00 85 1008.3
20260831012241 26 350 0.0 3.2 0.00 0.00 0.00 85 1008.3
20260831012008 26 333 0.0 3.2 0.00 0.00 0.00 84 1008.1
20260831011238 26 25 0.0 1.6 0.00 0.00 0.00 84 1008.0
20260831010732 26 355 0.0 0.0 0.00 0.00 0.00 84 1008.0
20260831010226 26 66 0.0 0.0 0.00 0.00 0.00 83 1008.0
20260831005720 26 66 0.0 0.0 0.00 0.00 0.00 83 1008.0
20260831005214 26 68 0.0 1.6 0.00 0.00 0.00 83 1007.9
20260831004708 27 68 0.0 1.6 0.00 0.00 0.00 82 1007.9
20260831004202 27 317 0.0 1.6 0.00 0.00 0.00 82 1007.8
20260831003656 27 34 0.0 1.6 0.00 0.00 0.00 82 1007.9
20260831003150 27 97 0.0 1.6 0.00 0.00 0.00 81 1008.0
20260831002644 27 359 0.0 1.6 0.00 0.00 0.00 81 1008.1
20260831002138 27 358 0.0 0.0 0.00 0.00 0.00 81 1008.1
20260831002133 27 358 0.0 8.0 0.00 0.00 0.00 80 1008.0
20260831001356 27 352 0.0 8.0 0.00 0.00 0.00 80 1008.1
20260831000619 27 84 0.0 3.2 0.00 0.00 0.00 80 1008.0
20260831000111 27 0 0.0 1.6 0.00 0.00 0.00 80 1008.0
20260830235606 28 94 0.0 1.6 0.00 0.00 0.00 79 1007.9
20260830235601 28 355 0.0 1.6 0.00 0.00 0.00 78 1007.9
20260830234554 28 75 0.0 3.2 0.00 0.00 0.00 78 1008.0